EWG8SY LOWW-EDDL

Flight info

Callsign EWG8SY
Flight time 1h 19m
Altitude 36000
Route MEDIX2B/16 MEDIX DCT LAMSI DCT RODIS DCT TESDU DCT AMETU T852 TINSA T854 DOMUX DOMUX1A
Aircraft A21N/M-SDE2E3FGHIRWXY/LB1

Departure

Time 2026-05-04 17:46
Airport Vienna International Airport (LOWW)

Arrival

Time 2026-05-04 19:05
Airport Düsseldorf Airport (EDDL)
Time Latitude Longitude Altitude Speed Heading
2026-05-04 17:19 48.11949 16.55575 623 ft 0 kts 64°
2026-05-04 17:33 48.11944 16.55559 632 ft 4 kts 64°
2026-05-04 17:33 48.11935 16.55531 629 ft 4 kts 64°
2026-05-04 17:34 48.11904 16.55419 625 ft 4 kts 81°
2026-05-04 17:34 48.11905 16.55384 625 ft 3 kts 115°
2026-05-04 17:35 48.11920 16.55337 620 ft 0 kts 116°
2026-05-04 17:38 48.11914 16.55358 622 ft 6 kts 116°
2026-05-04 17:38 48.11895 16.55416 617 ft 10 kts 111°
2026-05-04 17:39 48.11818 16.55688 627 ft 18 kts 116°
2026-05-04 17:39 48.11757 16.55875 624 ft 21 kts 115°
2026-05-04 17:39 48.11689 16.56083 616 ft 23 kts 116°
2026-05-04 17:40 48.11617 16.56305 615 ft 24 kts 116°
2026-05-04 17:40 48.11539 16.56541 623 ft 26 kts 116°
2026-05-04 17:40 48.11461 16.56782 617 ft 24 kts 116°
2026-05-04 17:40 48.11386 16.57013 622 ft 25 kts 116°
2026-05-04 17:41 48.11314 16.57234 622 ft 16 kts 115°
2026-05-04 17:41 48.11327 16.57340 616 ft 13 kts 31°
2026-05-04 17:41 48.11413 16.57403 619 ft 15 kts 26°
2026-05-04 17:41 48.11515 16.57461 615 ft 17 kts
2026-05-04 17:42 48.11635 16.57418 623 ft 19 kts 344°
2026-05-04 17:42 48.11766 16.57363 622 ft 20 kts 344°
2026-05-04 17:42 48.11908 16.57302 615 ft 22 kts 344°
2026-05-04 17:42 48.11980 16.57312 624 ft 12 kts 50°
2026-05-04 17:43 48.12010 16.57436 620 ft 14 kts 76°
2026-05-04 17:43 48.12010 16.57507 615 ft 1 kts 102°
2026-05-04 17:43 48.12006 16.57529 618 ft 4 kts 103°
2026-05-04 17:43 48.11998 16.57579 618 ft 0 kts 105°
2026-05-04 17:44 48.11996 16.57586 615 ft 2 kts 105°
2026-05-04 17:44 48.11983 16.57663 615 ft 11 kts 104°
2026-05-04 17:45 48.11956 16.57790 622 ft 12 kts 115°
2026-05-04 17:45 48.11908 16.57847 619 ft 3 kts 162°
2026-05-04 17:45 48.11906 16.57848 620 ft 0 kts 163°
2026-05-04 17:45 48.11889 16.57855 625 ft 17 kts 163°
2026-05-04 17:46 48.11529 16.58007 620 ft 89 kts 163°
2026-05-04 17:46 48.10738 16.58342 616 ft 143 kts 163°
2026-05-04 17:46 48.09702 16.58763 1019 ft 151 kts 163°
2026-05-04 17:46 48.08664 16.59201 1524 ft 159 kts 166°
2026-05-04 17:47 48.07593 16.59627 2160 ft 164 kts 166°
2026-05-04 17:47 48.06449 16.60116 2742 ft 179 kts 168°
2026-05-04 17:47 48.05158 16.60085 3378 ft 197 kts 194°
2026-05-04 17:47 48.03853 16.59068 3780 ft 231 kts 221°
2026-05-04 17:48 48.02972 16.56965 4520 ft 246 kts 245°
2026-05-04 17:48 48.02452 16.54503 5476 ft 253 kts 256°
2026-05-04 17:48 48.02398 16.51822 6379 ft 262 kts 269°
2026-05-04 17:48 48.02461 16.49077 7241 ft 267 kts 269°
2026-05-04 17:49 48.02510 16.46277 8154 ft 272 kts 269°
2026-05-04 17:49 48.02544 16.43426 9080 ft 277 kts 268°
2026-05-04 17:49 48.02566 16.40525 10026 ft 280 kts 268°
2026-05-04 17:49 48.02638 16.37515 10551 ft 302 kts 275°
2026-05-04 17:50 48.03223 16.34387 11084 ft 322 kts 289°
2026-05-04 17:50 48.04107 16.31272 11887 ft 328 kts 290°
2026-05-04 17:50 48.05021 16.28123 12783 ft 332 kts 290°
2026-05-04 17:50 48.05923 16.24965 13663 ft 337 kts 290°
2026-05-04 17:51 48.06848 16.21678 14462 ft 340 kts 290°
2026-05-04 17:51 48.07761 16.18391 15273 ft 343 kts 290°
2026-05-04 17:51 48.08667 16.15123 16060 ft 347 kts 290°
2026-05-04 17:51 48.09594 16.11775 16868 ft 350 kts 290°
2026-05-04 17:52 48.10529 16.08387 17678 ft 353 kts 290°
2026-05-04 17:52 48.11466 16.04972 18412 ft 357 kts 290°
2026-05-04 17:52 48.12411 16.01525 19084 ft 360 kts 290°
2026-05-04 17:52 48.13370 15.98039 19763 ft 363 kts 290°
2026-05-04 17:53 48.14335 15.94536 20443 ft 366 kts 290°
2026-05-04 17:53 48.15313 15.90987 21107 ft 369 kts 291°
2026-05-04 17:53 48.16324 15.87428 21739 ft 373 kts 291°
2026-05-04 17:53 48.17345 15.83841 22369 ft 376 kts 291°
2026-05-04 17:54 48.18369 15.80216 23020 ft 379 kts 291°
2026-05-04 17:54 48.19398 15.76561 23588 ft 383 kts 292°
2026-05-04 17:54 48.20432 15.72864 23837 ft 386 kts 292°
2026-05-04 17:54 48.21471 15.69159 23964 ft 386 kts 292°
2026-05-04 17:55 48.22511 15.65445 24389 ft 387 kts 290°
2026-05-04 17:55 48.23383 15.61621 24933 ft 388 kts 287°
2026-05-04 17:55 48.24211 15.57740 25421 ft 392 kts 287°
2026-05-04 17:55 48.25045 15.53836 25933 ft 394 kts 287°
2026-05-04 17:56 48.25889 15.49910 26428 ft 396 kts 287°
2026-05-04 17:56 48.26743 15.45950 26891 ft 399 kts 287°
2026-05-04 17:56 48.27590 15.41967 27356 ft 402 kts 287°
2026-05-04 17:56 48.28439 15.37962 27808 ft 404 kts 287°
2026-05-04 17:57 48.29296 15.33925 28234 ft 407 kts 287°
2026-05-04 17:57 48.30149 15.29916 28659 ft 409 kts 287°
2026-05-04 17:57 48.31028 15.25781 29088 ft 412 kts 287°
2026-05-04 17:57 48.31890 15.21724 29502 ft 414 kts 288°
2026-05-04 17:58 48.32767 15.17594 29920 ft 417 kts 287°
2026-05-04 17:58 48.33646 15.13430 30278 ft 418 kts 287°
2026-05-04 17:58 48.34541 15.09256 30637 ft 420 kts 287°
2026-05-04 17:58 48.35442 15.05074 30987 ft 422 kts 287°
2026-05-04 17:59 48.36337 15.00865 31337 ft 423 kts 287°
2026-05-04 17:59 48.37234 14.96639 31682 ft 425 kts 287°
2026-05-04 17:59 48.39009 14.88175 32595 ft 422 kts 286°
2026-05-04 18:00 48.39591 14.85395 32896 ft 421 kts 286°
2026-05-04 18:00 48.40467 14.81200 33337 ft 419 kts 286°
2026-05-04 18:00 48.41338 14.77020 33730 ft 419 kts 285°
2026-05-04 18:00 48.42211 14.72833 33915 ft 420 kts 285°
2026-05-04 18:01 48.43082 14.68638 33936 ft 420 kts 285°
2026-05-04 18:01 48.44817 14.60246 33904 ft 419 kts 285°
2026-05-04 18:02 48.47416 14.47644 33892 ft 420 kts 285°
2026-05-04 18:02 48.49126 14.39233 33894 ft 420 kts 285°
2026-05-04 18:03 48.50848 14.30777 33893 ft 423 kts 285°
2026-05-04 18:03 48.52585 14.22283 33901 ft 424 kts 285°
2026-05-04 18:04 48.54300 14.13774 33897 ft 424 kts 285°
2026-05-04 18:05 48.56865 14.01002 33897 ft 424 kts 285°
2026-05-04 18:05 48.58580 13.92466 34273 ft 425 kts 284°
2026-05-04 18:05 48.59409 13.88252 34613 ft 424 kts 284°
2026-05-04 18:06 48.61088 13.79749 35287 ft 421 kts 285°
2026-05-04 18:06 48.61935 13.75515 35592 ft 419 kts 285°
2026-05-04 18:06 48.62772 13.71296 35865 ft 419 kts 284°
2026-05-04 18:07 48.64420 13.62868 35932 ft 417 kts 285°
2026-05-04 18:07 48.66936 13.54959 35912 ft 423 kts 303°
2026-05-04 18:08 48.70577 13.47941 35909 ft 424 kts 306°
2026-05-04 18:08 48.74255 13.40944 35921 ft 424 kts 305°
2026-05-04 18:09 48.81500 13.26864 35917 ft 423 kts 305°
2026-05-04 18:10 48.85109 13.19873 35931 ft 423 kts 305°
2026-05-04 18:10 48.88720 13.12810 35933 ft 423 kts 304°
2026-05-04 18:11 48.92315 13.05736 35921 ft 423 kts 304°
2026-05-04 18:11 48.95903 12.98638 35934 ft 423 kts 304°
2026-05-04 18:12 48.99501 12.91552 35939 ft 423 kts 304°
2026-05-04 18:12 49.03076 12.84443 35946 ft 422 kts 304°
2026-05-04 18:13 49.06654 12.77348 35958 ft 422 kts 304°
2026-05-04 18:14 49.11973 12.66741 35961 ft 421 kts 304°
2026-05-04 18:14 49.15539 12.59618 35949 ft 422 kts 304°
2026-05-04 18:15 49.22646 12.45363 35956 ft 422 kts 304°
2026-05-04 18:16 49.26204 12.38195 35943 ft 422 kts 304°
2026-05-04 18:16 49.29756 12.31010 35947 ft 422 kts 303°
2026-05-04 18:17 49.35049 12.20274 35952 ft 421 kts 303°
2026-05-04 18:18 49.40333 12.09507 35958 ft 422 kts 303°
2026-05-04 18:18 49.43845 12.02340 35958 ft 422 kts 303°
2026-05-04 18:19 49.49120 11.91482 35972 ft 422 kts 303°
2026-05-04 18:19 49.52628 11.84226 35976 ft 423 kts 303°
2026-05-04 18:20 49.56138 11.76960 35981 ft 423 kts 303°
2026-05-04 18:20 49.59654 11.69675 35985 ft 423 kts 303°
2026-05-04 18:21 49.63159 11.62382 35972 ft 422 kts 302°
2026-05-04 18:21 49.66638 11.55082 35969 ft 422 kts 302°
2026-05-04 18:22 49.70124 11.47791 35960 ft 422 kts 302°
2026-05-04 18:22 49.73603 11.40491 35954 ft 422 kts 302°
2026-05-04 18:23 49.77083 11.33170 35951 ft 422 kts 302°
2026-05-04 18:23 49.80556 11.25828 35952 ft 423 kts 302°
2026-05-04 18:24 49.84008 11.18525 35949 ft 423 kts 302°
2026-05-04 18:24 49.87478 11.11149 35951 ft 423 kts 302°
2026-05-04 18:25 49.90939 11.03778 35965 ft 421 kts 302°
2026-05-04 18:25 49.94371 10.96434 35963 ft 420 kts 302°
2026-05-04 18:26 49.97793 10.89076 35956 ft 420 kts 302°
2026-05-04 18:26 50.01223 10.81722 35956 ft 420 kts 302°
2026-05-04 18:27 50.04630 10.74344 35958 ft 420 kts 302°
2026-05-04 18:27 50.08038 10.66964 35955 ft 420 kts 302°
2026-05-04 18:28 50.11444 10.59572 35963 ft 420 kts 301°
2026-05-04 18:28 50.14847 10.52157 35971 ft 421 kts 301°
2026-05-04 18:29 50.18256 10.44737 35973 ft 421 kts 301°
2026-05-04 18:29 50.21628 10.37360 35966 ft 420 kts 301°
2026-05-04 18:30 50.26650 10.26128 35980 ft 424 kts 300°
2026-05-04 18:31 50.30072 10.18436 35980 ft 435 kts 301°
2026-05-04 18:31 50.33545 10.10646 35976 ft 437 kts 300°
2026-05-04 18:32 50.37014 10.02830 35967 ft 437 kts 300°
2026-05-04 18:32 50.40478 9.94999 35970 ft 437 kts 300°
2026-05-04 18:33 50.43940 9.87159 35969 ft 437 kts 300°
2026-05-04 18:33 50.47400 9.79303 35987 ft 436 kts 300°
2026-05-04 18:34 50.50839 9.71457 35985 ft 436 kts 300°
2026-05-04 18:34 50.54280 9.63592 35974 ft 436 kts 300°
2026-05-04 18:35 50.57718 9.55723 35974 ft 436 kts 300°
2026-05-04 18:35 50.61145 9.47855 35980 ft 436 kts 300°
2026-05-04 18:36 50.64572 9.39975 35981 ft 436 kts 300°
2026-05-04 18:36 50.67999 9.32087 35974 ft 436 kts 300°
2026-05-04 18:37 50.71397 9.24227 35380 ft 430 kts 299°
2026-05-04 18:37 50.73077 9.20291 34505 ft 433 kts 299°
2026-05-04 18:37 50.74770 9.16333 33966 ft 437 kts 299°
2026-05-04 18:37 50.76457 9.12409 34593 ft 426 kts 299°
2026-05-04 18:38 50.78101 9.08598 35306 ft 415 kts 299°
2026-05-04 18:38 50.79711 9.04836 35760 ft 411 kts 299°
2026-05-04 18:38 50.81311 9.01075 35919 ft 413 kts 299°
2026-05-04 18:39 50.84695 8.93556 35936 ft 429 kts 303°
2026-05-04 18:39 50.86575 8.89825 35338 ft 436 kts 304°
2026-05-04 18:39 50.88481 8.86080 34613 ft 436 kts 303°
2026-05-04 18:39 50.90389 8.82302 33828 ft 442 kts 303°
2026-05-04 18:40 50.92296 8.78476 32932 ft 444 kts 303°
2026-05-04 18:40 50.94205 8.74636 32062 ft 443 kts 303°
2026-05-04 18:40 50.96119 8.70791 31207 ft 443 kts 303°
2026-05-04 18:40 50.98021 8.66989 30380 ft 438 kts 303°
2026-05-04 18:41 50.99905 8.63227 29581 ft 430 kts 304°
2026-05-04 18:41 51.01887 8.59799 29084 ft 426 kts 312°
2026-05-04 18:41 51.04218 8.56910 28433 ft 429 kts 320°
2026-05-04 18:41 51.06744 8.54276 27678 ft 434 kts 322°
2026-05-04 18:42 51.09273 8.51704 26923 ft 431 kts 322°
2026-05-04 18:42 51.11793 8.49123 26162 ft 430 kts 322°
2026-05-04 18:42 51.14297 8.46535 25433 ft 428 kts 323°
2026-05-04 18:42 51.16784 8.43951 24712 ft 426 kts 323°
2026-05-04 18:43 51.19264 8.41366 24015 ft 424 kts 323°
2026-05-04 18:43 51.21724 8.38799 23283 ft 422 kts 323°
2026-05-04 18:43 51.24174 8.36236 22471 ft 420 kts 323°
2026-05-04 18:43 51.26609 8.33686 21692 ft 416 kts 323°
2026-05-04 18:44 51.29011 8.31170 20911 ft 410 kts 323°
2026-05-04 18:44 51.29810 8.30331 20670 ft 407 kts 323°
2026-05-04 18:44 51.32917 8.27069 19681 ft 399 kts 323°
2026-05-04 18:44 51.35218 8.24656 19015 ft 391 kts 323°
2026-05-04 18:45 51.37456 8.22315 18469 ft 378 kts 323°
2026-05-04 18:45 51.39618 8.20054 17931 ft 364 kts 323°
2026-05-04 18:45 51.41726 8.17847 17385 ft 351 kts 323°
2026-05-04 18:45 51.43707 8.15768 16870 ft 339 kts 323°
2026-05-04 18:46 51.45620 8.13651 16340 ft 329 kts 316°
2026-05-04 18:46 51.47093 8.10911 15865 ft 321 kts 297°
2026-05-04 18:46 51.47888 8.07634 15396 ft 313 kts 278°
2026-05-04 18:46 51.47988 8.04202 14921 ft 305 kts 260°
2026-05-04 18:47 51.47623 8.00880 14457 ft 302 kts 255°
2026-05-04 18:47 51.47191 7.97582 14086 ft 302 kts 255°
2026-05-04 18:47 51.46774 7.94285 13955 ft 302 kts 256°
2026-05-04 18:47 51.46374 7.90984 13956 ft 302 kts 256°
2026-05-04 18:48 51.45980 7.87676 13959 ft 302 kts 256°
2026-05-04 18:48 51.45590 7.84370 13966 ft 302 kts 256°
2026-05-04 18:48 51.45200 7.81063 13981 ft 302 kts 256°
2026-05-04 18:48 51.44811 7.77754 13981 ft 302 kts 256°
2026-05-04 18:49 51.44423 7.74448 13980 ft 302 kts 256°
2026-05-04 18:49 51.44034 7.71140 13977 ft 302 kts 256°
2026-05-04 18:49 51.43642 7.67826 13980 ft 302 kts 256°
2026-05-04 18:49 51.43249 7.64515 13970 ft 302 kts 257°
2026-05-04 18:50 51.42857 7.61209 13973 ft 302 kts 257°
2026-05-04 18:50 51.42464 7.57904 13967 ft 302 kts 257°
2026-05-04 18:50 51.42038 7.54610 13835 ft 301 kts 252°
2026-05-04 18:50 51.41187 7.51584 13614 ft 297 kts 236°
2026-05-04 18:51 51.40068 7.48868 13397 ft 295 kts 234°
2026-05-04 18:51 51.38910 7.46150 13143 ft 294 kts 234°
2026-05-04 18:51 51.37761 7.43441 12890 ft 293 kts 234°
2026-05-04 18:51 51.36626 7.40743 12652 ft 288 kts 234°
2026-05-04 18:52 51.35546 7.38165 12397 ft 270 kts 234°
2026-05-04 18:52 51.34535 7.35746 12128 ft 255 kts 234°
2026-05-04 18:52 51.33561 7.33414 11866 ft 248 kts 234°
2026-05-04 18:52 51.32605 7.31132 11606 ft 245 kts 234°
2026-05-04 18:53 51.31660 7.28872 11344 ft 244 kts 234°
2026-05-04 18:53 51.30716 7.26616 11101 ft 243 kts 234°
2026-05-04 18:53 51.29778 7.24378 10868 ft 242 kts 234°
2026-05-04 18:53 51.28841 7.22148 10637 ft 241 kts 234°
2026-05-04 18:54 51.27908 7.19931 10396 ft 240 kts 234°
2026-05-04 18:54 51.26984 7.17722 10171 ft 239 kts 235°
2026-05-04 18:54 51.26301 7.15300 9946 ft 243 kts 255°
2026-05-04 18:54 51.26337 7.12564 9691 ft 253 kts 283°
2026-05-04 18:55 51.27202 7.10103 9442 ft 259 kts 311°
2026-05-04 18:55 51.30316 7.07264 8950 ft 264 kts 351°
2026-05-04 18:55 51.32134 7.07467 8699 ft 265 kts 19°
2026-05-04 18:56 51.33666 7.09022 8454 ft 263 kts 49°
2026-05-04 18:56 51.34793 7.11312 8219 ft 260 kts 56°
2026-05-04 18:56 51.35850 7.13665 7977 ft 260 kts 56°
2026-05-04 18:56 51.36902 7.15982 7733 ft 255 kts 55°
2026-05-04 18:57 51.37948 7.18256 7421 ft 253 kts 55°
2026-05-04 18:57 51.39000 7.20525 7063 ft 256 kts 54°
2026-05-04 18:57 51.40103 7.22783 6693 ft 258 kts 44°
2026-05-04 18:57 51.41610 7.24290 6331 ft 256 kts 16°
2026-05-04 18:58 51.43350 7.24544 5951 ft 250 kts 347°
2026-05-04 18:58 51.44913 7.23521 5563 ft 241 kts 319°
2026-05-04 18:58 51.45942 7.21513 5185 ft 231 kts 290°
2026-05-04 18:58 51.46231 7.19018 4823 ft 229 kts 267°
2026-05-04 18:59 51.46152 7.16500 4455 ft 228 kts 263°
2026-05-04 18:59 51.46028 7.13964 4077 ft 229 kts 262°
2026-05-04 18:59 51.45592 7.11543 3696 ft 226 kts 243°
2026-05-04 18:59 51.44798 7.09384 3316 ft 225 kts 233°
2026-05-04 19:00 51.43813 7.07440 3031 ft 225 kts 232°
2026-05-04 19:00 51.42861 7.05438 2968 ft 225 kts 231°
2026-05-04 19:00 51.41917 7.03441 2984 ft 222 kts 231°
2026-05-04 19:00 51.41040 7.01586 2978 ft 194 kts 231°
2026-05-04 19:01 51.40276 6.99971 3044 ft 175 kts 231°
2026-05-04 19:01 51.39546 6.98431 3032 ft 174 kts 231°
2026-05-04 19:01 51.38815 6.96887 2987 ft 174 kts 231°
2026-05-04 19:01 51.38085 6.95345 2864 ft 174 kts 231°
2026-05-04 19:02 51.37358 6.93809 2656 ft 173 kts 231°
2026-05-04 19:02 51.36633 6.92280 2433 ft 170 kts 231°
2026-05-04 19:02 51.35924 6.90784 2202 ft 168 kts 231°
2026-05-04 19:02 51.35217 6.89292 1972 ft 168 kts 231°
2026-05-04 19:03 51.34530 6.87842 1753 ft 152 kts 231°
2026-05-04 19:03 51.33950 6.86618 1532 ft 131 kts 229°
2026-05-04 19:03 51.33399 6.85458 1362 ft 131 kts 229°
2026-05-04 19:03 51.32850 6.84305 1194 ft 130 kts 229°
2026-05-04 19:04 51.32294 6.83138 1015 ft 134 kts 230°
2026-05-04 19:04 51.31738 6.81944 862 ft 134 kts 230°
2026-05-04 19:04 51.31187 6.80749 701 ft 133 kts 228°
2026-05-04 19:04 51.30613 6.79584 494 ft 134 kts 230°
2026-05-04 19:05 51.30048 6.78394 304 ft 138 kts 228°
2026-05-04 19:05 51.29467 6.77168 150 ft 134 kts 229°
2026-05-04 19:05 51.28966 6.76129 139 ft 80 kts 238°
2026-05-04 19:05 51.28768 6.75767 134 ft 24 kts 218°
2026-05-04 19:06 51.28644 6.75681 126 ft 18 kts 186°
2026-05-04 19:06 51.28540 6.75700 127 ft 9 kts 157°
2026-05-04 19:06 51.28529 6.75709 130 ft 0 kts 153°
2026-05-04 19:06 51.28526 6.75710 129 ft 0 kts 153°
2026-05-04 19:07 51.28526 6.75711 129 ft 1 kts 153°
2026-05-04 19:07 51.28510 6.75724 128 ft 5 kts 151°
2026-05-04 19:07 51.28475 6.75760 129 ft 4 kts 144°
2026-05-04 19:08 51.28472 6.75764 129 ft 0 kts 143°
2026-05-04 19:10 51.28467 6.75770 127 ft 3 kts 143°
2026-05-04 19:10 51.28442 6.75799 131 ft 6 kts 143°
2026-05-04 19:10 51.28404 6.75844 132 ft 5 kts 142°
2026-05-04 19:10 51.28399 6.75851 132 ft 0 kts 141°
2026-05-04 19:13 51.28398 6.75851 132 ft 1 kts 141°
2026-05-04 19:13 51.28382 6.75872 133 ft 6 kts 141°
2026-05-04 19:14 51.28337 6.75929 134 ft 11 kts 142°
2026-05-04 19:14 51.28262 6.76016 134 ft 15 kts 147°
2026-05-04 19:14 51.28226 6.76052 134 ft 5 kts 149°
2026-05-04 19:14 51.28217 6.76060 134 ft 0 kts 148°
2026-05-04 19:15 51.28196 6.76099 134 ft 7 kts 114°
2026-05-04 19:15 51.28205 6.76191 134 ft 8 kts 89°
2026-05-04 19:15 51.28193 6.76236 135 ft 0 kts 135°
2026-05-04 19:16 51.28180 6.76256 135 ft 6 kts 140°
2026-05-04 19:16 51.28143 6.76328 136 ft 10 kts 118°
2026-05-04 19:17 51.28090 6.76424 136 ft 11 kts 144°
2026-05-04 19:17 51.28049 6.76464 136 ft 6 kts 149°
2026-05-04 19:17 51.28032 6.76497 136 ft 3 kts 102°
2026-05-04 19:17 51.28030 6.76517 136 ft 2 kts 95°
2026-05-04 19:18 51.28030 6.76523 136 ft 1 kts 94°
2026-05-04 19:18 51.28030 6.76525 136 ft 0 kts 94°